Weather History for KPUC - February, 2014

Change the Weather History Date:

Tuesday, February 4, 2014

  Actual Average (WUND) Record (WUND)
Temperature  
Mean Temperature 22 °F -  
Max Temperature 32 °F - - (-1)
Min Temperature 12 °F - - (-1)
Degree Days  
Heating Degree Days 43    
Moisture  
Dew Point 5 °F    
Average Humidity 50    
Maximum Humidity 84    
Minimum Humidity 27    
Precipitation  
Precipitation 0.00 in - - ()
Sea Level Pressure  
Sea Level Pressure 30.02 in    
Wind  
Wind Speed 6 mph (NW)    
Max Wind Speed 17 mph    
Max Gust Speed 26 mph    
Visibility 10 miles    
Events      
Averages and records for this station are not official NWS values.
T = Trace of Precipitation, MM = Missing Value Source: NWS Daily Summary

Daily Weather History Graph

Daily Weather History Graph

Search for Another Location

Airport or City:

Trip Planner

Search our weather history database for the weather conditions in past years. The results will help you decide how hot, cold, wet, or windy it might be!

Date:

Astronomy

Feb. 04, 2014 Rise Set
Actual Time 7:27 AM MST 5:46 PM MST
Civil Twilight 6:59 AM MST 6:14 PM MST
Nautical Twilight 6:27 AM MST 6:47 PM MST
Astronomical Twilight 5:55 AM MST 7:18 PM MST
Moon 10:09 AM MST (2/4) 11:43 PM MST (2/4)
Length of Visible Light 11h 15m
Length of Day
10h 19m
Waxing Crescent, 29% of the Moon is Illuminated
Feb 4
Waxing Crescent
Feb 6
First Quarter
Feb 14
Full
Feb 22
Last Quarter
Mar 1
New

Hourly Weather History & Observations

Time (MST) Temp. Windchill Dew Point Humidity Pressure Visibility Wind Dir Wind Speed Gust Speed Precip Events Conditions
6:39 AM 21.9 °F - 17.1 °F 82% 29.76 in 8.0 mi Calm Calm - N/A   Overcast
6:53 AM 21.9 °F - 17.1 °F 82% 29.91 in 8.0 mi Calm Calm - N/A   Overcast
7:53 AM 12.9 °F - 9.0 °F 84% 29.96 in 10.0 mi Calm Calm - N/A   Partly Cloudy
8:53 AM 25.0 °F 18.1 °F 14.0 °F 63% 29.94 in 10.0 mi WNW 5.8 mph - N/A   Clear
9:53 AM 28.0 °F 24.2 °F 10.0 °F 47% 29.96 in 10.0 mi WNW 3.5 mph - N/A   Clear
10:53 AM 30.9 °F 22.8 °F 6.1 °F 35% 29.96 in 10.0 mi WNW 9.2 mph - N/A   Clear
11:53 AM 30.9 °F 19.8 °F 1.9 °F 29% 29.96 in 10.0 mi WNW 16.1 mph 24.2 mph N/A   Clear
12:53 PM 32.0 °F 21.6 °F 1.0 °F 27% 29.94 in 10.0 mi West 15.0 mph 21.9 mph N/A   Partly Cloudy
1:15 PM 30.0 °F 18.3 °F 1.0 °F 29% 29.83 in 10.0 mi NW 17.3 mph 23.0 mph N/A   Mostly Cloudy
1:53 PM 30.0 °F 19.5 °F 1.9 °F 30% 29.97 in 10.0 mi NW 13.8 mph 26.5 mph N/A   Overcast
2:53 PM 28.0 °F 18.1 °F 1.9 °F 33% 30.00 in 10.0 mi NNW 11.5 mph - N/A   Overcast
3:53 PM 27.0 °F 16.7 °F 1.9 °F 34% 30.01 in 10.0 mi NW 11.5 mph 21.9 mph N/A   Overcast
4:53 PM 28.9 °F 22.8 °F 1.9 °F 32% 30.03 in 10.0 mi NW 5.8 mph - N/A   Scattered Clouds
5:53 PM 24.1 °F 12.5 °F 3.0 °F 40% 30.09 in 10.0 mi NNW 12.7 mph - N/A   Scattered Clouds
6:53 PM 18.0 °F 9.8 °F 1.9 °F 50% 30.13 in 10.0 mi NNW 5.8 mph - N/A   Clear
7:53 PM 15.1 °F 6.4 °F 1.9 °F 56% 30.19 in 10.0 mi North 5.8 mph - N/A   Clear
8:53 PM 12.9 °F 1.6 °F 1.0 °F 59% 30.17 in 10.0 mi North 8.1 mph - N/A   Clear
9:53 PM 14.0 °F 2.0 °F 1.9 °F 59% 30.18 in 10.0 mi NNE 9.2 mph - N/A   Clear
10:53 PM 14.0 °F 2.9 °F 1.9 °F 59% 30.19 in 10.0 mi North 8.1 mph - N/A   Clear
11:53 PM 12.0 °F -0.4 °F 1.0 °F 61% 30.22 in 10.0 mi North 9.2 mph - N/A   Clear